Regional Weather Roundup
Issued by NWS

Home | Current Version | Previous Version | Text Only | Print | Product List | Glossary On
Versions: 1 2 3 4 5 6 7 8 9 10 11 12 13 14 15 16 17 18 19 20 21 22 23 24 25 26 27 28 29 30 31 32 33 34 35 36 37 38 39 40 41 42 43 44 45 46 47 48 49 50
000
ASUS43 KMPX 280510
RWRMN
WEATHER ROUNDUP FOR MINNESOTA
NATIONAL WEATHER SERVICE TWIN CITIES/CHANHASSEN MN
1200 AM CDT FRI APR 28 2017


NOTE: "FAIR" INDICATES FEW OR NO CLOUDS BELOW 12,000 FEET WITH NO
SIGNIFICANT WEATHER AND/OR OBSTRUCTIONS TO VISIBILITY. N/A MEANS
CURRENT SKY AND/OR WEATHER CONDITIONS ARE NOT AVAILABLE.

MNZ060>063-068>070-280600-
   Twin Cities Metro

CITY           SKY/WX    TMP DP  RH WIND       PRES   REMARKS
TWIN CITIES    CLOUDY    36  25  64 W9        29.79R
ST PAUL        CLOUDY    36  26  67 W10       29.80R
CRYSTAL        CLOUDY    34  24  67 W10       29.78R WCI  26
LAKEVILLE      CLOUDY    32  27  80 W8        29.80R WCI  25
EDEN PRAIRIE   CLOUDY    35  26  69 W9        29.79R WCI  28
SOUTH ST PAUL  CLOUDY    36  26  67 W7        29.79R
LAKE ELMO      CLOUDY    34  27  75 W13       29.79R WCI  25
$$
MNZ001>005-007-008-013>017-022>024-027-028-280600-
   Northwest Minnesota

CITY           SKY/WX    TMP DP  RH WIND       PRES   REMARKS
BEMIDJI        CLOUDY    28  23  84 NW13      29.73R WCI  17
HALLOCK        CLOUDY    36  30  80 N7        29.81R
ROSEAU         LGT SNOW  30  27  86 NW9       29.76R WCI  22
WARROAD        LGT SNOW  30  27  86 NW8       29.75R WCI  23
THIEF RVR FALL MOCLDY    28  24  85 N9        29.79R WCI  19
CROOKSTON      CLOUDY    32  30  93 NW6       29.82R WCI  26
FOSSTON        CLEAR     27  21  80 NW9       29.78R WCI  17
DETROIT LAKES  CLOUDY    32  28  86 NW6       29.78S WCI  26
MOORHEAD       CLOUDY    36  30  80 NW13      29.82R
PARK RAPIDS    CLOUDY    30  24  78 W15       29.73R WCI  19
MAHNOMEN       CLOUDY    30  27  88 NW6       29.78R WCI  24
$$
MNZ006-009>011-018-025>026-280600-
   North Central Minnesota

CITY           SKY/WX    TMP DP  RH WIND       PRES   REMARKS
BAUDETTE       CLOUDY    30  24  78 N15       29.69R WCI  19
FLAG ISLAND    LGT SNOW  30  27  86 N20G26    29.73R WCI  18
INTL FALLS     LGT SNOW  26  22  84 W6        29.66R FOG     WCI  19
WASKISH        CLOUDY    28  25  86 NW9       29.71R WCI  20
BIG FORK       CLOUDY    27  23  86 W3        29.68R
LONGVILLE      CLOUDY    30  21  69 NW9       29.71R WCI  22
GRAND RAPIDS   CLOUDY    27  22  81 NW14      29.70R WCI  16
CRANE LAKE     CLOUDY    25  21  86 CALM      29.65S
ORR            FLURRIES  25  21  86 W6        29.62R WCI  18
COOK           CLOUDY    25  23  93 W12       29.65R WCI  14
WALKER         MIX PCPN  28  26  91 W7        29.72R WCI  21
$$
MNZ012-019>021-037-280600-
   Northeast Minnesota

CITY           SKY/WX    TMP DP  RH WIND       PRES   REMARKS
DULUTH         CLOUDY    28  23  81 W12       29.65R WCI  18
ELY            CLOUDY    25  21  86 W7        29.61R WCI  17
HIBBING        CLOUDY    26  21  81 W9        29.65S WCI  17
EVELETH        CLOUDY    28  20  75 W10       29.65S WCI  18
DULUTH HARBOR  CLOUDY    32  27  80 W15       29.71R WCI  22
TWO HARBORS    CLOUDY    30  23  74 W10       29.64R WCI  21
SILVER BAY     CLOUDY    28  25  86 SW5       29.62R WCI  23
GRAND MARAIS     N/A     28  26  92 W6        29.62R WCI  22
G MARAIS ARPRT CLOUDY    21  16  79 CALM      29.55R
$$
MNZ029>031-032-039>041-046>048-054>057-064-280600-
   West Central Minnesota

CITY           SKY/WX    TMP DP  RH WIND       PRES   REMARKS
FERGUS FALLS   CLOUDY    36  28  75 NW7       29.80R
WHEATON        MOCLDY    37  30  75 W5        29.82R
MORRIS         CLOUDY    36  30  80 W5        29.79R
ALEXANDRIA     CLOUDY    34  28  79 W9        29.78R WCI  27
ELBOW LAKE     CLOUDY    35  31  87 W5        29.79R WCI  30
WADENA         CLOUDY    30  27  86 W5        29.76R WCI  25
GLENWOOD       CLOUDY    34  28  80 W7        29.79R WCI  28
APPLETON       CLOUDY    37  28  70 SW9       29.81R
BENSON         CLOUDY    37  28  70 W6        29.81S
ORTONVILLE     CLOUDY    36  28  75 W6        29.80S
MADISON        PTCLDY    37  30  75 SW7       29.81S
WILLMAR        CLOUDY    36  32  87 CALM      29.82R
$$
MNZ033>034-036-042>043-049>051-058-059-280600-
   Central Minnesota

CITY           SKY/WX    TMP DP  RH WIND       PRES   REMARKS
ST CLOUD       CLOUDY    33  27  78 W9        29.77R WCI  25
SAUK CENTRE    CLOUDY    33  28  81 W9        29.77S WCI  25
PAYNESVILLE    CLOUDY    34  28  80 SW9       29.79S WCI  26
AITKIN         CLOUDY    32  21  64 W6        29.70R WCI  26
PINE RIVER     CLOUDY    28  25  86 W6        29.77R WCI  22
BRAINERD       CLOUDY    31  24  75 W14       29.74R WCI  21
STAPLES        CLOUDY    28  25  86 W9        29.76R WCI  20
LONG PRAIRIE   CLOUDY    32  28  86 W6        29.78R WCI  26
LITTLE FALLS   CLOUDY    32  27  80 W9        29.76R WCI  24
LITCHFIELD     CLOUDY    36  28  75 W5        29.80R
BUFFALO        CLOUDY    34  27  75 SW6       29.80R WCI  29
MAPLE LAKE     CLOUDY    35  29  80 W6        29.79R WCI  30
HUTCHINSON     CLOUDY    34  30  83 SW5       29.82R WCI  30
$$
MNZ037-044-045-052-053-280600-
   East Central Minnesota

CITY           SKY/WX    TMP DP  RH WIND       PRES   REMARKS
PRINCETON      CLOUDY    34  27  75 W6        29.77R WCI  29
MORA           CLOUDY    32  25  74 W6        29.75S WCI  26
CAMBRIDGE      CLOUDY    36  25  64 W6        29.74R
RUSH CITY      CLOUDY    32  25  76 W7        29.75R WCI  26
MOOSE LAKE     CLOUDY    30  27  86 W6        29.69S WCI  24
HINCKLEY       CLOUDY    32  30  93 SW6       29.73R WCI  26
CLOQUET        CLOUDY    28  25  86 W3        29.68R FOG
MCGREGOR       CLOUDY    30  27  86 W8        29.71R WCI  23
$$
MNZ071>073-080-081-089-090-097-098-280600-
   Southwest Minnesota

CITY           SKY/WX    TMP DP  RH WIND       PRES   REMARKS
MONTEVIDEO     CLOUDY    36  28  75 W7        29.81S
GRANITE FALLS  CLOUDY    36  31  82 S9        29.84R
CANBY          CLEAR     36  31  83 CALM      29.83S
MARSHALL       PTCLDY    30  28  92 SW9       29.84S WCI  22
REDWOOD FALLS  CLOUDY    35  27  72 SW10      29.82S WCI  27
OLIVIA         CLOUDY    34  30  86 SW8       29.81R WCI  27
PIPESTONE      CLEAR     32  25  74 SE3       29.82S
WINDOM         CLEAR     30  28  93 CALM      29.84F
WORTHINGTON    CLEAR     28  26  92 SE3       29.85S
JACKSON        CLEAR     32  28  86 N3        29.85S
TRACY          CLEAR     32  29  88 S6        29.84S WCI  26
SLAYTON        PTCLDY    30  27  88 S6        29.84S WCI  24
$$
MNZ065>067-074>077-082>085-091>093-280600-
   South Central Minnesota

CITY           SKY/WX    TMP DP  RH WIND       PRES   REMARKS
MANKATO        CLOUDY    33  28  81 SW7       29.84S WCI  27
NEW ULM        CLOUDY    34  28  80 SW6       29.83F WCI  29
ST JAMES       CLEAR     32  28  86 W6        29.85F WCI  26
FAIRMONT       CLEAR     33  27  78 NW9       29.86S WCI  25
GLENCOE        CLOUDY    35  31  87 W5        29.81R WCI  31
FARIBAULT      CLOUDY    34  28  80 SW7       29.82S WCI  28
OWATONNA       CLOUDY    34  27  75 W10       29.83R WCI  26
WASECA         PTCLDY    32  27  80 W9        29.85S WCI  24
ALBERT LEA     CLOUDY    34  25  69 NW7G18    29.83S WCI  28
$$
MNZ078>079-086>088-094>096-280600-
   Southeast Minnesota

CITY           SKY/WX    TMP DP  RH WIND       PRES   REMARKS
ROCHESTER      CLOUDY    33  27  78 W12G23    29.81R WCI  24
RED WING       CLOUDY    36  25  64 W10G17    29.79R
STANTON        MOCLDY    35  28  75 W7        29.79S WCI  29
DODGE CENTER   CLOUDY    34  27  75 W13G18    29.81R WCI  25
WINONA         CLOUDY    36  28  75 W7        29.82R
AUSTIN         CLOUDY    34  27  75 W10G17    29.83S WCI  26
PRESTON        CLOUDY    32  26  78 W12G20    29.82R WCI  23
$$
ABBREVIATIONS USED IN REMARKS
   TC - TEMPERATURES IN CELSIUS
  WCI - WIND CHILL INDEX
   HX - HEAT INDEX
  VSB - VISIBILITY
$$



USA.gov is the U.S. government's official web portal to all federal, state and local government web resources and services.